Wind_Speed
24 24 24 24 24 24 24 24 24 25 25 24 24 24 24 24 24 25 25 25 25 26 26 27 27 27 27 28 28 29 30 30 30 30 31 31 31 31 30 30 30 30 30
25 25 25 26 26 26 26 26 26 26 26 26 26 25 26 26 26 26 27 27 27 28 28 28 28 29 29 29 29 30 31 31 32 32 32 32 32 32 32 32 32 33 32
27 27 27 27 27 27 27 27 27 28 28 28 27 27 27 28 28 28 29 29 29 29 29 29 30 30 31 31 31 32 32 33 33 33 33 34 34 33 33 33 34 34 34
30 30 29 29 29 29 29 29 29 29 29 29 29 29 29 29 30 30 30 30 31 31 31 31 32 32 32 32 33 33 34 35 34 35 35 35 35 35 35 34 35 35 35
32 32 32 31 31 31 31 30 31 31 31 31 31 31 31 31 31 31 32 32 32 32 32 32 33 33 33 33 34 34 35 36 36 36 36 37 37 36 36 37 37 37 37
34 34 34 33 33 32 32 32 32 32 32 32 32 32 33 33 33 33 33 33 33 33 33 33 34 34 34 35 36 36 37 37 37 37 37 38 38 38 39 39 39 39 39
36 36 35 34 34 34 34 34 33 33 34 33 33 33 34 34 34 34 34 35 35 35 35 35 35 36 36 37 37 38 38 38 39 39 39 40 40 40 41 40 40 40 40
38 37 37 35 34 34 34 34 34 34 34 35 35 35 34 34 35 35 36 36 36 36 36 36 37 38 38 38 39 40 40 40 41 41 41 42 42 42 42 42 41 41 41
40 39 38 38 36 36 36 36 35 35 36 36 36 36 36 36 36 36 36 36 37 37 37 38 38 39 40 40 41 41 42 42 42 42 43 43 43 43 43 42 42 42 42
41 41 40 39 39 38 38 38 37 36 36 36 36 36 37 37 37 36 37 37 38 39 39 40 40 41 41 42 42 42 42 42 43 43 43 43 43 42 42 42 42 42 42
43 42 42 42 41 40 40 40 39 39 38 38 38 38 38 38 38 38 38 38 39 40 41 42 42 42 42 42 42 42 42 42 42 42 42 42 42 41 41 41 42 42 42
45 44 44 43 43 42 42 41 42 41 40 40 40 40 40 40 40 40 40 40 40 41 42 42 43 42 42 42 42 42 42 43 43 43 43 42 42 41 41 41 42 43 44
45 45 45 44 44 44 44 43 43 42 42 41 41 42 41 41 41 41 42 42 42 42 42 42 42 41 41 42 42 43 43 43 43 43 43 42 42 42 42 43 43 44 45
46 46 45 45 45 45 44 44 45 44 44 43 42 43 43 43 43 43 43 43 43 42 41 41 41 42 42 43 44 44 43 43 43 42 42 42 43 43 44 44 45 45 45
47 47 47 46 45 45 45 45 44 44 45 44 44 44 44 44 44 45 45 44 43 42 42 41 42 42 43 43 44 44 43 43 43 44 44 44 44 45 45 46 46 46 46
48 49 49 48 47 47 46 45 45 45 45 45 46 46 45 45 46 46 45 45 44 44 43 43 43 44 44 45 45 45 44 44 45 45 45 46 46 46 47 47 47 46 46
49 50 49 49 49 48 47 46 46 45 46 47 47 46 46 46 45 45 45 46 46 45 45 44 44 44 44 45 45 45 45 46 46 46 47 48 47 47 48 47 47 46 46
50 49 49 50 49 48 47 47 46 46 47 48 47 46 47 46 46 46 46 46 46 46 46 45 45 44 44 45 46 46 46 47 48 48 49 49 49 48 48 46 46 46 46
48 48 48 48 48 48 48 48 47 47 48 48 48 48 47 47 48 48 47 47 47 46 46 46 45 45 45 46 47 47 47 48 49 49 50 50 49 48 47 46 46 47 47
49 49 48 49 48 48 48 48 48 48 48 49 49 48 48 48 48 48 47 47 47 47 47 47 46 46 46 47 48 48 48 49 50 50 50 49 48 47 47 47 48 48 48
50 50 49 49 49 49 49 48 48 49 49 49 49 48 48 48 48 48 47 47 47 47 47 47 47 47 48 48 49 49 49 49 49 49 48 48 48 48 48 48 49 49 49
51 50 50 50 49 50 50 49 49 49 49 48 48 48 49 49 49 48 48 47 47 48 48 48 49 49 49 50 50 50 50 50 49 48 48 48 48 49 49 49 49 49 49
53 52 51 51 51 51 51 51 51 51 50 49 49 49 49 49 50 49 49 49 49 49 49 49 50 50 50 51 51 51 50 50 50 49 49 49 50 50 49 49 49 49 49
53 53 53 53 53 54 54 53 52 51 50 50 50 49 50 49 49 50 50 50 51 51 50 50 50 50 51 51 51 51 50 50 50 50 50 50 49 49 48 48 49 50 49
54 54 54 54 54 55 55 54 53 52 52 51 51 51 51 51 51 51 50 50 51 51 50 50 50 50 50 50 51 50 50 50 50 50 49 49 49 47 47 47 49 49 49
53 53 53 54 54 54 55 55 54 53 52 52 52 52 52 52 51 51 51 51 50 50 50 50 50 50 51 51 51 51 50 50 50 48 48 48 47 47 46 46 48 48 48
Wind_Direction
264 266 267 268 269 270 272 274 276 278 280 281 283 284 285 288 291 294 296 297 298 299 299 300 301 302 303 304 304 303 303 302 303 302 301 301 301 300 299 298 297 297 296
263 265 266 268 269 270 272 274 276 279 279 280 282 282 284 287 290 292 294 295 297 298 298 298 300 301 301 302 303 303 304 303 303 302 301 301 300 299 298 297 295 295 295
262 264 265 267 269 270 271 273 275 277 278 279 280 282 284 287 289 292 293 294 295 296 297 297 298 299 300 300 301 302 303 304 302 301 302 301 300 299 298 297 295 294 294
262 264 265 267 269 270 271 273 274 275 277 278 279 281 284 286 288 290 291 293 294 295 296 296 297 298 299 299 299 300 302 303 302 300 301 301 299 298 297 296 296 295 294
261 263 264 265 267 270 270 272 274 274 275 276 278 281 283 285 287 289 290 291 293 294 294 295 297 298 298 298 298 300 301 302 301 300 300 300 299 298 297 296 296 295 294
260 262 263 264 266 269 269 271 274 274 274 275 277 279 282 284 286 287 288 290 292 293 293 295 296 297 297 298 298 299 300 301 301 300 300 300 299 297 297 296 296 295 294
260 261 263 264 265 267 269 270 272 273 274 275 277 278 280 283 285 286 287 288 290 291 292 294 295 296 297 298 299 299 300 300 301 301 300 300 299 297 296 295 295 294 293
259 260 261 263 265 266 268 269 270 271 273 274 276 278 280 282 283 285 286 287 288 289 291 293 294 296 297 297 298 300 300 300 300 301 300 300 299 298 296 295 294 293 292
259 260 261 262 264 266 267 268 269 271 273 275 276 278 279 281 283 284 286 287 288 289 291 292 294 296 296 297 298 299 299 299 300 300 300 299 299 298 297 295 294 293 292
258 259 260 261 263 265 266 268 270 271 272 273 275 277 280 282 283 284 285 287 288 289 291 292 294 295 296 296 297 298 299 300 301 302 301 301 300 298 296 295 295 294 293
257 258 259 261 262 264 265 267 268 270 271 272 274 277 279 281 283 284 284 285 287 289 291 292 293 294 295 296 296 297 299 300 301 301 301 301 300 298 296 296 296 295 294
256 257 259 260 262 263 265 266 267 269 270 271 274 276 279 281 283 284 285 285 286 288 290 291 293 293 294 294 296 297 298 299 300 301 301 301 299 298 297 296 296 295 294
257 257 258 260 261 262 263 264 266 267 269 271 273 275 278 280 282 284 285 286 287 288 290 291 292 292 293 294 296 297 299 299 300 300 301 300 300 299 298 298 296 295 295
257 258 259 260 260 261 262 264 266 267 269 271 273 275 277 279 281 282 284 285 287 288 289 290 291 291 292 294 295 297 298 299 299 301 301 301 301 300 300 299 298 296 295
257 257 258 258 259 260 261 263 265 267 269 271 273 274 276 277 279 281 283 284 286 287 289 290 290 291 292 293 295 296 297 298 299 300 301 301 300 300 300 300 298 297 296
257 257 257 258 259 260 262 263 265 267 269 271 273 274 275 277 279 280 282 283 285 286 288 288 289 291 292 293 294 296 297 298 299 299 300 300 301 301 301 300 298 297 296
258 258 259 259 260 261 262 263 265 267 269 270 273 274 275 276 278 280 282 283 285 286 288 288 290 291 292 293 293 295 296 297 298 299 300 300 300 300 300 299 297 297 297
259 259 259 259 260 260 262 263 266 267 269 270 273 274 276 277 278 280 282 283 284 286 287 288 289 290 291 292 294 295 295 296 298 299 299 299 300 299 299 298 298 298 298
259 259 259 260 260 261 263 264 266 268 269 270 272 274 275 277 278 280 281 282 283 284 286 287 289 290 291 292 293 294 296 297 298 299 299 299 299 299 299 298 299 299 299
258 259 260 261 262 263 264 265 267 268 269 270 272 273 275 276 277 279 280 281 282 284 285 286 287 289 290 292 293 294 295 296 298 298 298 298 298 298 298 298 299 300 299
259 260 261 262 262 263 263 265 267 268 270 271 272 272 274 276 277 278 280 281 282 284 285 286 287 288 290 292 293 293 294 296 297 298 298 298 298 299 299 298 299 299 300
259 260 261 262 262 262 262 264 266 267 269 271 272 273 274 276 277 278 279 281 282 283 284 286 287 289 290 292 293 293 295 295 296 296 297 297 298 298 298 298 298 299 299
258 259 261 262 263 263 263 265 266 267 268 270 271 272 273 276 278 278 279 281 283 284 285 286 287 289 290 292 293 293 295 296 296 296 296 297 297 298 298 297 297 297 298
258 259 261 262 262 262 263 264 265 266 267 269 270 272 275 276 278 279 280 281 283 284 285 285 287 289 290 292 293 294 294 294 295 295 296 297 297 297 297 297 297 298 299
258 259 260 262 263 264 264 264 264 266 267 268 270 272 274 275 277 278 279 281 282 283 284 285 287 289 290 292 293 294 294 294 295 295 295 297 297 296 296 297 298 299 299
260 260 261 262 263 264 264 263 263 265 267 268 269 271 273 275 277 278 279 281 282 282 283 285 287 288 289 291 293 294 294 294 295 294 295 297 297 297 296 297 298 299 300
Height
5851 5851 5852 5853 5853 5854 5854 5854 5854 5854 5854 5853 5853 5852 5852 5851 5850 5849 5848 5847 5845 5843 5842 5840 5838 5836 5834 5832 5830 5828 5826 5823 5821 5819 5817 5815 5812 5810 5808 5806 5804 5802 5800
5845 5846 5847 5848 5848 5849 5849 5849 5849 5849 5848 5848 5848 5847 5847 5846 5845 5844 5843 5841 5840 5838 5836 5835 5833 5831 5829 5826 5824 5822 5820 5817 5815 5813 5810 5808 5806 5803 5801 5799 5797 5794 5793
5840 5841 5841 5842 5842 5843 5843 5844 5844 5843 5843 5843 5842 5842 5841 5841 5840 5838 5837 5836 5834 5832 5831 5829 5827 5825 5823 5820 5818 5816 5813 5811 5808 5806 5803 5801 5798 5796 5793 5791 5789 5787 5785
5834 5834 5835 5836 5837 5837 5837 5838 5838 5837 5837 5837 5837 5836 5836 5835 5834 5833 5831 5830 5828 5826 5825 5823 5821 5818 5816 5814 5812 5809 5807 5804 5801 5799 5796 5793 5790 5788 5785 5783 5781 5779 5777
5827 5828 5829 5830 5830 5831 5831 5831 5831 5831 5831 5831 5831 5830 5830 5829 5827 5826 5825 5823 5821 5820 5818 5816 5814 5812 5809 5807 5805 5802 5799 5797 5794 5791 5788 5785 5782 5779 5777 5774 5772 5770 5768
5820 5821 5822 5823 5823 5824 5824 5824 5825 5824 5824 5824 5824 5823 5823 5822 5821 5819 5818 5816 5815 5813 5811 5809 5807 5804 5802 5800 5797 5794 5792 5789 5786 5783 5780 5777 5774 5771 5768 5765 5762 5760 5758
5812 5813 5814 5815 5816 5816 5817 5817 5817 5817 5817 5817 5816 5816 5816 5815 5814 5813 5811 5809 5808 5806 5804 5802 5799 5797 5794 5791 5789 5786 5783 5780 5777 5774 5771 5767 5764 5761 5758 5755 5752 5749 5747
5804 5805 5806 5807 5808 5809 5809 5809 5809 5809 5809 5809 5809 5809 5809 5809 5807 5806 5804 5802 5800 5798 5796 5794 5791 5788 5786 5783 5780 5777 5775 5771 5768 5765 5761 5757 5754 5750 5747 5744 5741 5739 5736
5795 5797 5798 5799 5800 5801 5801 5801 5802 5802 5802 5801 5801 5801 5800 5800 5799 5798 5796 5794 5792 5790 5788 5786 5783 5780 5777 5774 5771 5768 5765 5762 5758 5754 5751 5747 5743 5739 5736 5733 5730 5727 5725
5786 5788 5789 5790 5792 5792 5793 5793 5793 5793 5793 5793 5793 5792 5792 5791 5790 5790 5789 5786 5784 5782 5780 5777 5774 5771 5768 5765 5762 5759 5755 5752 5748 5744 5740 5736 5732 5728 5725 5722 5719 5716 5714
5777 5778 5780 5781 5782 5783 5784 5784 5785 5785 5784 5784 5784 5783 5783 5782 5781 5780 5780 5779 5776 5773 5771 5768 5765 5762 5759 5755 5752 5749 5746 5742 5739 5734 5730 5726 5722 5717 5714 5711 5708 5705 5702
5767 5768 5770 5771 5773 5774 5774 5775 5775 5775 5775 5775 5775 5774 5773 5773 5772 5770 5769 5768 5767 5765 5761 5758 5755 5752 5749 5746 5743 5739 5736 5732 5729 5724 5720 5716 5711 5707 5704 5701 5697 5694 5691
5756 5758 5759 5761 5762 5763 5764 5765 5765 5765 5765 5765 5765 5765 5764 5763 5762 5761 5759 5758 5756 5755 5752 5749 5745 5742 5739 5736 5733 5729 5726 5722 5718 5714 5710 5706 5702 5698 5694 5690 5687 5683 5680
5746 5747 5748 5750 5751 5752 5753 5754 5755 5755 5755 5755 5755 5754 5754 5753 5752 5750 5749 5747 5746 5745 5742 5739 5736 5732 5729 5726 5723 5719 5716 5712 5708 5704 5700 5696 5692 5688 5684 5680 5676 5672 5668
5734 5736 5737 5739 5740 5741 5743 5744 5744 5745 5745 5745 5745 5744 5743 5742 5741 5740 5738 5736 5735 5734 5732 5729 5726 5723 5719 5716 5713 5709 5706 5702 5699 5695 5690 5686 5682 5678 5673 5669 5664 5660 5657
5723 5724 5726 5727 5729 5730 5731 5733 5733 5734 5734 5734 5734 5733 5732 5731 5730 5729 5727 5725 5723 5722 5720 5719 5715 5712 5709 5705 5702 5699 5696 5692 5688 5684 5680 5676 5671 5667 5662 5658 5653 5649 5645
5711 5712 5714 5715 5717 5719 5720 5721 5722 5722 5723 5723 5722 5722 5721 5720 5719 5718 5716 5714 5712 5710 5709 5708 5704 5701 5698 5695 5692 5689 5685 5682 5678 5673 5669 5665 5660 5655 5651 5646 5642 5637 5634
5699 5700 5701 5703 5705 5707 5708 5709 5710 5710 5711 5711 5711 5710 5710 5709 5708 5706 5705 5703 5701 5699 5697 5696 5694 5691 5688 5685 5682 5678 5675 5671 5666 5662 5658 5653 5648 5644 5639 5634 5630 5626 5622
5686 5688 5689 5690 5692 5694 5696 5697 5698 5699 5699 5699 5699 5698 5698 5697 5696 5695 5693 5691 5689 5687 5685 5684 5682 5680 5677 5674 5671 5667 5664 5660 5655 5650 5646 5641 5636 5632 5627 5623 5619 5615 5611
5674 5676 5677 5678 5680 5682 5683 5684 5685 5686 5686 5687 5686 5686 5685 5685 5684 5683 5681 5680 5678 5676 5674 5672 5670 5668 5666 5662 5659 5656 5653 5649 5644 5639 5634 5629 5625 5620 5616 5612 5608 5603 5599
5662 5663 5665 5666 5667 5669 5671 5672 5673 5674 5674 5674 5674 5674 5673 5672 5672 5671 5669 5668 5666 5665 5662 5660 5659 5656 5654 5651 5647 5644 5640 5637 5632 5627 5623 5618 5613 5609 5605 5600 5595 5591 5586
5649 5651 5652 5653 5655 5657 5658 5660 5660 5661 5662 5662 5662 5662 5661 5660 5659 5658 5657 5656 5654 5652 5651 5649 5646 5644 5641 5638 5635 5631 5627 5624 5621 5617 5611 5607 5602 5597 5593 5588 5583 5578 5574
5636 5638 5639 5641 5642 5644 5645 5647 5647 5648 5649 5650 5650 5649 5649 5648 5647 5646 5645 5643 5642 5640 5638 5636 5634 5631 5628 5626 5622 5619 5615 5610 5606 5602 5599 5596 5590 5585 5580 5575 5571 5566 5562
5623 5624 5626 5627 5629 5630 5632 5633 5634 5635 5636 5636 5637 5636 5636 5635 5634 5633 5633 5631 5629 5627 5625 5623 5621 5618 5615 5611 5608 5605 5601 5598 5594 5589 5585 5582 5578 5573 5568 5563 5558 5553 5549
5609 5611 5612 5614 5615 5616 5618 5619 5621 5622 5623 5623 5624 5624 5623 5623 5622 5621 5620 5618 5617 5615 5612 5610 5607 5604 5601 5597 5594 5591 5588 5585 5582 5578 5573 5569 5565 5561 5557 5551 5546 5540 5536
5595 5597 5598 5599 5601 5602 5604 5605 5607 5609 5610 5610 5610 5610 5610 5609 5608 5607 5606 5605 5604 5602 5600 5597 5594 5591 5587 5584 5580 5577 5574 5571 5567 5565 5561 5556 5552 5548 5545 5541 5535 5529 5524